Weather History for La Porte, IN

Change the Weather History Date:

Saturday, December 15, 2012

  Actual Average (KVPZ) Record (KVPZ)
Temperature  
Mean Temperature 40 °F 28 °F  
Max Temperature 49 °F 34 °F 56 °F (2011)
Min Temperature 32 °F 21 °F -7 °F (2010)
Degree Days  
Heating Degree Days 24 37  
Month to date heating degree days 518  
Since 1 July heating degree days 1776  
Cooling Degree Days 0 0  
Month to date cooling degree days 0  
Year to date cooling degree days 713  
Moisture  
Dew Point 39 °F    
Average Humidity 86    
Maximum Humidity 99    
Minimum Humidity 65    
Precipitation  
Precipitation 0.12 in 0.06 in 0.25 in (1999)
Month to date precipitation 1.15  
Year to date precipitation 36.48  
Sea Level Pressure  
Sea Level Pressure 29.81 in    
Wind  
Wind Speed 6 mph (South)    
Max Wind Speed 15 mph    
Max Gust Speed 24 mph    
Visibility 8 miles    
Events Rain    
T = Trace of Precipitation, MM = Missing Value Source: NWS Daily Summary

Daily Weather History Graph

Daily Weather History Graph

Search for Another Location

Airport:

Trip Planner

Search our weather history database for the weather conditions in past years. The results will help you decide how hot, cold, wet, or windy it might be!

Date:

Astronomy

Dec. 15, 2012 Rise Set
Actual Time 7:06 AM CST 4:17 PM CST
Civil Twilight 6:35 AM CST 4:49 PM CST
Nautical Twilight 6:00 AM CST 5:24 PM CST
Astronomical Twilight 5:26 AM CST 5:58 PM CST
Moon 8:57 AM CST (12/15) 7:22 PM CST (12/15)
Length of Visible Light 10h 13m
Length of Day
9h 10m
Waxing Crescent, 8% of the Moon is Illuminated
Dec 15
Waxing Crescent
Dec 19
First Quarter
Dec 28
Full
Jan 4
Last Quarter
Jan 11
New

Hourly Weather History & Observations

Time (CST) Temp. Windchill Dew Point Humidity Pressure Visibility Wind Dir Wind Speed Gust Speed Precip Events Conditions
12:15 AM 34.9 °F - 30.6 °F 84% 30.07 in 10.0 mi Calm Calm - N/A   Scattered Clouds
12:35 AM 34.0 °F - 30.2 °F 86% 30.06 in 10.0 mi Calm Calm - N/A   Clear
12:55 AM 34.7 °F - 30.9 °F 86% 30.07 in 10.0 mi Calm Calm - N/A   Scattered Clouds
1:15 AM 34.7 °F 31.8 °F 30.6 °F 85% 30.06 in 10.0 mi ESE 3.5 mph - N/A   Scattered Clouds
1:35 AM 33.8 °F 30.8 °F 30.6 °F 88% 30.06 in 10.0 mi SE 3.5 mph - N/A   Clear
1:55 AM 34.3 °F - 29.3 °F 82% 30.06 in 10.0 mi Calm Calm - N/A   Clear
2:15 AM 33.8 °F 30.8 °F 29.3 °F 84% 30.05 in 10.0 mi SE 3.5 mph - N/A   Clear
2:35 AM 32.0 °F 28.7 °F 28.9 °F 88% 30.04 in 10.0 mi SE 3.5 mph - N/A   Clear
2:55 AM 35.6 °F 30.7 °F 29.1 °F 77% 30.03 in 10.0 mi SE 5.8 mph - N/A   Clear
3:15 AM 36.5 °F 31.8 °F 28.9 °F 74% 30.03 in 10.0 mi SSE 5.8 mph - N/A   Clear
3:35 AM 37.9 °F 34.4 °F 28.8 °F 70% 30.04 in 10.0 mi SSE 4.6 mph - N/A   Clear
3:55 AM 38.3 °F 33.2 °F 28.8 °F 69% 30.01 in 10.0 mi SE 6.9 mph - N/A   Scattered Clouds
4:15 AM 38.7 °F 34.3 °F 28.4 °F 67% 30.01 in 10.0 mi SSE 5.8 mph - N/A   Scattered Clouds
4:35 AM 39.2 °F 35.9 °F 28.4 °F 65% 30.01 in 10.0 mi SSE 4.6 mph - N/A   Mostly Cloudy
4:55 AM 39.2 °F 35.9 °F 28.4 °F 65% 30.02 in 10.0 mi SSE 4.6 mph - N/A   Overcast
5:15 AM 39.2 °F 35.0 °F 28.4 °F 65% 30.02 in 10.0 mi SSE 5.8 mph - N/A   Overcast
5:35 AM 38.5 °F 35.0 °F 29.1 °F 69% 30.01 in 10.0 mi SE 4.6 mph - N/A   Overcast
5:55 AM 38.8 °F 34.6 °F 29.3 °F 69% 30.00 in 10.0 mi SE 5.8 mph - N/A   Overcast
6:15 AM 39.2 °F 35.0 °F 29.3 °F 68% 29.98 in 10.0 mi ESE 5.8 mph - N/A   Mostly Cloudy
6:35 AM 39.6 °F 34.7 °F 29.8 °F 68% 29.96 in 10.0 mi SE 6.9 mph - N/A   Overcast
6:55 AM 40.1 °F 35.3 °F 30.2 °F 68% 29.95 in 10.0 mi SE 6.9 mph - N/A   Overcast
7:15 AM 40.6 °F 35.4 °F 30.7 °F 68% 29.94 in 10.0 mi SE 8.1 mph - N/A   Overcast
7:35 AM 41.5 °F 35.4 °F 31.1 °F 66% 29.94 in 10.0 mi SSE 10.4 mph - N/A   Overcast
8:15 AM 41.2 °F 35.5 °F 32.0 °F 70% 29.92 in 10.0 mi SSE 9.2 mph - N/A   Overcast
8:35 AM 41.9 °F 35.9 °F 32.0 °F 68% 29.94 in 10.0 mi South 10.4 mph 16.1 mph N/A   Overcast
8:55 AM 42.1 °F 36.6 °F 32.5 °F 69% 29.93 in 10.0 mi SSE 9.2 mph 17.3 mph N/A   Light Drizzle
9:15 AM 41.4 °F 35.2 °F 33.6 °F 74% 29.88 in 10.0 mi SE 10.4 mph - N/A Rain Light Rain
9:35 AM 41.5 °F 33.8 °F 34.7 °F 77% 29.85 in 10.0 mi SE 15.0 mph 19.6 mph N/A Rain Light Rain
9:55 AM 42.1 °F 34.5 °F 36.5 °F 81% 29.80 in 10.0 mi SE 15.0 mph 24.2 mph N/A Rain Light Rain
10:15 AM 43.0 °F 36.4 °F 36.5 °F 78% 29.83 in 10.0 mi SSE 12.7 mph 17.3 mph N/A   Overcast
10:35 AM 43.7 °F 38.1 °F 36.3 °F 75% 29.84 in 10.0 mi South 10.4 mph 16.1 mph N/A   Overcast
10:55 AM 42.4 °F 36.5 °F 38.3 °F 85% 29.81 in 4.0 mi SSE 10.4 mph - 0.03 in Rain Rain
11:15 AM 42.8 °F 37.5 °F 39.2 °F 87% 29.81 in 5.0 mi SSE 9.2 mph - 0.01 in Rain Light Rain
11:35 AM 42.4 °F 36.1 °F 40.1 °F 91% 29.79 in 4.0 mi SSE 11.5 mph 18.4 mph 0.04 in Rain Light Rain
11:55 AM 42.4 °F 36.1 °F 40.8 °F 94% 29.77 in 3.0 mi SSE 11.5 mph 21.9 mph 0.07 in Rain Rain
12:15 PM 42.8 °F 35.8 °F 41.5 °F 95% 29.76 in 5.0 mi SSE 13.8 mph 20.7 mph 0.01 in Rain Light Rain
12:35 PM 43.2 °F 36.2 °F 41.9 °F 95% 29.74 in 4.0 mi SSE 13.8 mph 20.7 mph 0.01 in   Light Drizzle
12:55 PM 43.3 °F 37.2 °F 42.1 °F 95% 29.74 in 7.0 mi South 11.5 mph 19.6 mph 0.01 in   Overcast
1:15 PM 43.9 °F 37.2 °F 42.3 °F 94% 29.71 in 10.0 mi South 13.8 mph 20.7 mph N/A   Overcast
1:35 PM 44.1 °F 37.7 °F 41.9 °F 92% 29.71 in 10.0 mi SSE 12.7 mph 19.6 mph N/A   Overcast
1:55 PM 44.6 °F 38.4 °F 41.9 °F 90% 29.70 in 10.0 mi SSE 12.7 mph 18.4 mph N/A   Overcast
2:15 PM 44.6 °F 38.1 °F 41.9 °F 90% 29.69 in 10.0 mi SSE 13.8 mph 21.9 mph N/A   Overcast
2:35 PM 44.1 °F 39.0 °F 42.1 °F 93% 29.68 in 4.0 mi South 9.2 mph 18.4 mph N/A   Overcast
2:55 PM 44.2 °F 39.2 °F 42.4 °F 93% 29.67 in 7.0 mi SSE 9.2 mph 16.1 mph N/A   Overcast
3:15 PM 44.1 °F 38.1 °F 42.8 °F 95% 29.67 in 3.0 mi South 11.5 mph - N/A   Drizzle
3:35 PM 44.1 °F 39.5 °F 43.2 °F 97% 29.66 in 7.0 mi SSE 8.1 mph - N/A   Light Drizzle
3:55 PM 44.6 °F 38.8 °F 43.7 °F 97% 29.66 in 10.0 mi South 11.5 mph - N/A   Overcast
4:15 PM 45.0 °F 39.7 °F 43.9 °F 96% 29.65 in 5.0 mi South 10.4 mph 17.3 mph N/A   Drizzle
4:35 PM 45.1 °F 39.9 °F 44.2 °F 97% 29.65 in 7.0 mi South 10.4 mph 19.6 mph N/A   Drizzle
4:55 PM 45.5 °F 39.9 °F 44.6 °F 97% 29.64 in 5.0 mi South 11.5 mph 17.3 mph N/A   Drizzle
5:15 PM 45.5 °F 40.3 °F 44.8 °F 97% 29.64 in 5.0 mi South 10.4 mph 18.4 mph 0.01 in Rain Heavy Rain
5:35 PM 45.3 °F 41.1 °F 44.6 °F 97% 29.64 in 4.0 mi South 8.1 mph 18.4 mph 0.01 in Rain Rain
5:55 PM 45.5 °F 40.8 °F 45.0 °F 98% 29.65 in 4.0 mi South 9.2 mph - 0.01 in Rain Light Rain
6:15 PM 45.5 °F 40.8 °F 45.1 °F 99% 29.64 in 7.0 mi South 9.2 mph - N/A   Overcast
6:35 PM 46.0 °F 41.9 °F 45.7 °F 99% 29.64 in 7.0 mi SSW 8.1 mph - N/A   Overcast
6:55 PM 46.4 °F 41.9 °F 45.9 °F 98% 29.64 in 7.0 mi SSW 9.2 mph - N/A   Light Drizzle
7:15 PM 46.9 °F - 46.4 °F 98% 29.63 in 7.0 mi SSW 10.4 mph - N/A   Overcast
7:35 PM 46.9 °F - 46.6 °F 99% 29.63 in 5.0 mi SSW 10.4 mph 17.3 mph N/A   Overcast
7:55 PM 47.5 °F - 47.3 °F 99% 29.64 in 7.0 mi SSW 12.7 mph - N/A   Overcast
8:15 PM 48.0 °F - 47.5 °F 98% 29.63 in 7.0 mi SW 11.5 mph 17.3 mph N/A   Overcast
8:35 PM 48.2 °F - 47.5 °F 97% 29.63 in 7.0 mi SSW 9.2 mph - N/A   Overcast
8:55 PM 48.2 °F - 47.5 °F 97% 29.63 in 7.0 mi SSW 9.2 mph - N/A   Overcast
9:15 PM 48.2 °F - 47.5 °F 97% 29.64 in 10.0 mi SW 8.1 mph - N/A   Overcast
9:35 PM 48.4 °F - 47.7 °F 97% 29.63 in 10.0 mi SW 8.1 mph - N/A   Overcast
9:55 PM 48.6 °F - 47.7 °F 97% 29.63 in 10.0 mi SSW 10.4 mph - N/A   Overcast
10:15 PM 48.7 °F - 48.2 °F 98% 29.63 in 5.0 mi SSW 10.4 mph - N/A Rain Rain
10:35 PM 49.1 °F - 48.2 °F 97% 29.62 in 7.0 mi SSW 10.4 mph - N/A   Overcast
10:55 PM 49.1 °F - 48.2 °F 97% 29.62 in 7.0 mi SW 8.1 mph - N/A   Overcast
11:15 PM 49.1 °F - 48.2 °F 97% 29.62 in 10.0 mi SW 10.4 mph - N/A   Overcast
11:35 PM 49.1 °F - 47.8 °F 95% 29.63 in 7.0 mi SW 9.2 mph - N/A   Overcast
11:55 PM 48.6 °F - 47.3 °F 95% 29.63 in 7.0 mi SW 9.2 mph - N/A   Overcast